SCP
0 0 0 0 0 0 0 0 0 0 0 0 0 0 0 0 0 0 0 0 0 0 0 0 0 0 0 -0 -0 0 0 0 0 0 0 0 0 0
0 0 0 0 0 0 0 0 0 0 0 0 0 0 0 0 0 0 0 0 0 0 0 0 0 0 -0 -0 -0 -0 0 0 0 0 0 0 0 0
0 0 0 0 0 0 0 0 0 0 0 0 0 0 0 0 0 0 0 0 0 0 0 0 0 0 -0 -0 -0 -0 -0 0 0 0 0 0 -0 -0
0 0 0 0 0 0 0 0 0 0 0 0 0 0 0 0 0 0 0 0 0 0 0 0 -0 -0 -0 -0 -0 -0 -0 -0 0 0 0 0 -0 -0
0 0 0 0 0 0 0 0 0 0 0 0 0 0 0 0 0 0 0 0 0 0 0 -0 -0 -0 -0 0 0 0 0 -0 -0 -0 -0 -0 -0 -0
0 0 0 0 0 0 0 0 0 0 0 0 0 0 0 0 0 0 0 0 0 0 -0 -0 -0 -0 -0 0 0 0 0 0 0 -0 -0 -0 -0 -0
0 0 0 0 0 0 0 0 0 0 0 0 0 0 0 0 0 0 0 0 0 0 0 -0 -0 -0 0 0 0 0 0 0 0 0 0 0 0 0
0 0 0 0 0 0 0 0 0 0 0 0 0 0 0 0 0 0 0 0 0 0 0 0 0 0 0 0 0 0 0 0 0 0 0 0 0 0
0 0 0 0 0 0 0 0 0 0 0 0 0 0 0 0 0 0 0 0 0 0 0 0 0 0 0 0 0 0 0 0 0 0 0 0 0 0
0 0 0 0 0 0 0 0 0 0 0 0 0 0 0 0 0 0 0 0 0 0 0 0 0 0 0 0 0 0 0 0 0 0 0 0 0 0
0 0 0 0 0 0 0 0 0 0 0 0 0 0 0 0 0 0 0 0 0 0 0 0 0 0 0 0 0 0 0 0 0 0 0 0 0 0
0 0 0 0 0 0 0 0 0 0 0 0 0 0 0 0 0 0 0 0 0 0 0 0 0 0 0 0 0 0 0 0 0 0 0 0 0 0
0 0 0 0 0 0 0 0 0 0 0 0 0 0 0 0 0 0 0 0 0 0 0 0 0 0 0 0 0 0 0 0 0 0 0 0 0 0
0 0 0 0 0 0 0 0 -0 0 0 0 0 0 0 0 0 0 0 0 0 0 0 0 0 0 0 0 0 0 0 0 0 0 0 0 0 0
0 0 0 0 0 0 0 0 0 0 0 0 0 0 0 0 0 0 0 0 0 0 0 0 0 0 0 0 0 0 0 0 0 0 0 0 0 0
0 0 0 0 0 0 0 0 0 0 0 0 0 0 0 0 0 0 0 0 0 0 0 0 0 0 0 0 0 0 0 0 0 0 0 0 0 0
0 0 0 0 0 -0 0 0 0 0 0 0 0 0 0 0 0 0 0 0 0 0 0 0 0 0 0 0 0 0 0 0 0 0 0 0 0 0
0 -0 0 0 0 -0 -0 0 0 0 0 0 0 0 0 0 0 0 0 0 0 0 0 -0 -0 -0 -0 0 0 0 0 0 0 0 0 0 0 0
0 -0 0 0 0 -0 -0 -0 0 0 0 0 0 0 0 0 0 0 0 0 0 0 -0 -0 -0 -0 -0 0 -0 -0 -0 -0 0 0 0 0 0 0
-0 -0 0 0 0 0 -0 -0 0 0 0 0 0 0 0 0 0 0 0 0 0 0 0 -0 -0 -0 -0 0 -0 -0 -0 -0 0 0 0 0 0 0
0 0 0 0 -0 -0 -0 -0 -0 0 0 0 0 0 0 0 0 0 0 0 0 0 0 0 0 0 0 0 0 -0 -0 -0 0 0 0 0 0 0
0 0 0 0 0 0 0 0 0 0 0 0 0 0 0 0 0 0 0 0 0 0 0 0 0 0 0 0 0 0 0 0 0 0 0 0 0 0
0 0 0 0 0 0 0 0 0 0 0 0 0 0 0 0 0 0 0 0 0 0 0 0 0 0 0 0 0 0 0 0 0 0 0 0 0 0
Wind_Speed
8 8 7 5 5 4 4 5 6 5 2 1 1 1 1 1 2 1 2 3 2 2 2 2 3 4 6 7 7 8 9 9 10 11 11 11 11 11
7 9 7 5 6 5 4 3 4 5 3 2 2 2 1 1 2 2 2 4 4 3 2 1 2 3 4 5 6 7 8 9 9 10 10 10 10 10
8 9 8 7 6 5 4 4 4 4 5 1 0 0 0 1 2 2 2 2 2 4 3 3 2 2 2 3 4 5 6 7 8 9 9 10 10 10
8 9 8 7 8 6 5 6 4 4 5 3 1 1 1 2 2 2 2 1 2 3 3 4 4 3 3 3 3 3 4 5 7 7 8 8 9 9
8 8 7 8 8 6 6 5 4 4 4 4 2 1 1 2 2 3 3 2 2 1 3 4 5 5 5 5 4 3 3 4 5 5 6 7 8 9
7 7 7 7 6 6 6 5 5 6 5 4 3 2 2 2 2 2 3 3 2 2 2 2 3 5 6 6 5 4 4 4 4 4 5 6 7 8
7 6 7 9 9 6 5 4 5 5 4 4 3 2 2 3 2 2 2 3 3 2 2 2 1 2 3 4 5 5 4 4 4 4 5 6 6 7
6 6 6 8 9 9 9 7 6 5 4 3 2 1 1 1 1 1 1 2 3 3 1 2 1 2 3 3 5 6 5 6 5 5 5 6 7 8
5 5 5 6 6 5 7 9 7 5 5 4 2 2 2 2 1 2 1 0 2 3 1 2 2 2 3 3 6 6 7 7 6 6 6 7 8 8
5 5 5 5 5 5 6 6 5 4 1 2 3 3 4 3 2 2 2 1 2 2 1 1 3 2 3 3 5 6 7 8 7 7 7 8 8 8
5 4 5 5 7 8 6 5 5 4 3 2 3 4 5 5 3 1 1 2 2 3 1 0 2 2 3 3 4 6 8 9 9 9 9 9 8 7
3 4 6 5 6 7 5 4 4 4 5 6 5 5 3 2 3 3 2 2 1 2 2 0 1 2 3 4 3 3 3 6 8 9 10 10 8 3
2 2 2 5 5 5 3 1 2 3 3 3 3 3 3 2 2 2 3 3 3 3 3 2 1 1 1 3 4 3 2 3 3 4 6 8 8 4
1 1 2 4 5 5 3 3 4 3 2 3 3 3 3 3 3 3 3 4 4 5 4 3 2 2 1 2 4 4 3 3 2 3 3 5 5 5
1 2 3 4 5 4 6 7 5 3 3 2 2 2 3 3 3 3 3 2 3 4 3 4 4 3 3 3 3 3 3 4 2 3 3 3 2 2
3 4 5 6 4 4 4 4 3 1 1 1 2 3 3 3 2 2 2 3 3 4 4 2 3 4 2 3 3 3 3 3 3 3 3 3 3 2
3 3 4 4 4 4 3 3 3 3 2 2 2 3 3 3 3 2 2 1 2 3 4 4 2 1 4 3 2 3 3 3 3 2 2 3 4 3
4 3 3 2 2 2 2 3 3 3 2 2 2 2 3 3 3 3 2 2 2 2 3 3 3 4 4 3 5 3 3 3 3 2 1 2 4 4
4 2 1 1 1 2 2 2 2 2 2 2 3 3 3 3 3 3 3 3 2 3 3 2 1 1 1 4 6 4 4 3 2 3 2 2 3 5
2 1 1 1 1 2 2 2 2 3 3 3 3 3 3 3 3 3 3 3 3 3 3 3 2 2 4 4 4 5 5 5 2 2 2 2 3 5
1 1 1 1 1 2 2 2 2 2 3 3 3 4 4 3 4 4 4 5 3 2 3 4 5 5 3 0 2 5 5 5 7 4 2 1 3 4
1 1 1 1 2 2 2 3 3 3 4 3 3 4 4 3 4 5 4 4 3 3 3 4 4 2 1 0 2 4 5 5 4 5 7 7 3 2
1 2 2 2 2 2 2 3 3 3 3 3 3 3 4 4 4 4 4 4 3 3 3 4 4 3 2 1 1 2 3 4 4 4 4 5 10 12
Wind_Direction
78 75 71 62 64 71 97 127 134 131 120 226 279 290 254 250 268 277 285 294 303 314 338 3 18 22 24 26 23 22 20 18 16 14 12 10 9 9
75 74 66 60 62 66 81 81 96 123 131 192 218 237 248 256 254 266 279 291 290 278 272 292 344 6 16 18 16 16 14 12 12 12 10 8 6 4
70 72 66 62 64 61 71 79 82 99 114 104 338 306 331 304 321 311 288 281 285 267 250 254 276 321 345 355 1 4 5 5 6 7 7 8 6 1
72 71 66 68 61 58 69 75 81 90 114 115 41 5 335 309 315 321 322 301 275 261 245 244 249 261 276 292 314 335 347 356 359 2 3 360 357 355
77 77 72 73 66 62 68 72 75 79 86 102 74 18 356 351 4 349 349 342 305 257 240 249 251 256 261 269 278 291 309 328 340 347 348 348 349 348
72 74 73 76 79 75 72 72 82 78 77 83 68 33 10 348 31 7 351 343 333 327 317 279 262 266 268 265 266 272 284 299 314 327 334 339 341 342
66 66 71 75 74 75 84 83 87 86 81 79 67 41 14 13 359 331 352 331 326 335 339 318 306 298 291 278 265 262 271 281 292 308 319 326 329 330
73 61 61 55 56 60 67 78 97 108 108 100 89 81 318 303 317 344 359 11 328 318 4 319 328 286 278 260 255 256 265 273 282 296 308 315 318 321
79 67 60 48 50 53 55 56 57 80 124 139 139 197 224 243 292 345 347 289 260 281 24 316 316 293 279 276 261 255 260 268 278 290 299 307 315 322
80 84 76 52 47 67 65 53 38 28 50 151 190 223 230 225 202 221 250 295 302 305 105 315 313 305 305 305 288 272 267 270 277 284 290 296 305 315
64 68 75 65 62 72 70 56 32 1 359 349 265 255 250 239 205 121 35 49 358 313 332 107 303 315 313 301 295 287 275 276 279 282 283 287 295 313
49 42 52 63 60 69 75 66 34 339 339 344 351 348 339 309 210 180 168 144 202 293 286 168 303 349 332 302 297 303 298 289 286 281 279 281 286 299
61 28 7 31 44 51 73 81 293 295 316 338 348 352 352 340 302 234 200 178 184 240 245 175 242 297 251 296 306 296 285 283 299 291 287 284 281 263
70 353 329 358 17 20 24 3 10 33 35 26 17 355 337 317 300 288 250 225 216 226 236 181 200 203 206 292 294 304 304 284 275 283 290 298 294 281
2 326 350 9 15 6 1 12 29 41 40 29 354 312 288 284 298 317 324 316 295 266 249 206 196 197 183 214 261 284 303 304 293 288 293 288 281 287
15 5 17 20 22 0 355 7 21 35 71 355 303 302 315 337 343 340 344 347 350 326 319 287 212 190 207 228 224 264 266 282 301 306 297 295 287 262
27 32 28 23 19 11 5 2 8 19 20 357 353 350 350 354 341 337 352 9 3 316 314 323 333 234 218 202 238 264 276 285 277 295 324 316 296 280
72 51 30 24 23 16 14 6 3 360 352 358 1 355 349 346 340 339 350 355 324 300 294 299 333 358 356 307 222 234 270 269 284 295 269 305 301 297
75 55 36 21 19 24 22 10 348 334 342 6 7 355 346 346 351 347 343 338 324 304 290 285 290 111 5 307 296 224 210 264 291 303 278 232 262 282
68 76 44 21 30 19 1 350 348 354 9 14 10 4 1 356 350 342 337 328 314 310 313 307 265 210 202 227 265 285 232 213 236 266 281 284 275 284
55 42 1 17 30 26 15 16 24 21 23 24 18 10 4 5 352 339 332 332 333 320 311 292 274 266 216 171 314 303 295 243 212 210 227 304 321 327
99 57 40 68 64 52 44 45 48 40 28 24 9 0 356 360 349 336 330 327 316 298 287 289 310 347 58 20 292 289 303 319 300 246 228 204 199 243
140 107 106 91 76 65 61 63 61 39 23 7 357 349 347 343 333 328 322 320 318 317 320 325 337 357 2 330 301 301 316 327 341 350 329 282 236 249